Calicut International Airport

Jump to: basic info | weather | frequencies | runways | comments

Related pages: nearby airports | nearby navaids | notams | map

Basic information (top)

Codes: CCJ VOCL
Location: lon 11.136800, lat 75.955299, elev 342 ft / 104 m msl
Status: large_airport
Scheduled airline service: yes
Links: Wikipedia Mobile

Weather (top)

Current conditions (rec'd 2015/04/19 10:30Z):

VOCL 191030Z 26011KT 8000 FEW015 FEW025CB 34/25 Q1006 NOSIG

Airport forecast (rec'd 2015/04/17 06:00Z):

TAF VOCL 170300Z 1706/1812 27010KT 6000 SCT015 SCT090 
      TEMPO 1709/1712 2000 TSRA/RA SCT008 SCT012 FEW025CB OVC090 
      BECMG 1717/1718 00000KT 4000 HZ 
      TEMPO 1800/1803 2000 BR 
      BECMG 1803/1804 07005KT 5000 HZ 
      BECMG 1805/1806 27010KT 6000 
      TEMPO 1809/1812 2000 TSRA/RA SCT008 SCT012 FEW025CB OVC090

Frequencies (top)

Verify before use: may be inaccurate or out of date.

ATIS: 127 MHz (ATIS)
TWR: 122.95 MHz (TWR)

Runways (top)

10/28: 9,383 x 150 ft (2,860 x 46 m) — paved — lighted

Latest comments (top)

Moideenkutty oorakam ( CCJ ): Calicut int airport ( Terminal,1 - ... [read]

Info: Calicut International Airport ... [read]

More... (top)

See also NOTAMs and nearby airports and navaids, or visit the Calicut International Airport page at the main OurAirports website..